SCP
0 0 0 0 0 0 0 0 0 0 0 0 0 0 0 0 0 -0 -0 -0 -0 0 0 0 0 0 0 0 0 0 0 0 0 0 0 0 0 0 0 0 0 0 0 0
0 0 0 0 0 0 0 0 0 0 0 0 0 0 0 0 0 0 0 -0 -0 0 0 0 0 0 0 0 0 0 0 0 0 0 0 0 0 0 0 0 0 0 0 0
0 0 0 0 0 0 0 0 0 0 0 0 0 0 0 0 0 0 0 0 -0 -0 0 0 0 0 0 0 0 0 0 0 0 0 0 0 0 0 0 0 0 0 0 0
0 0 0 0 0 0 0 0 0 0 0 0 0 0 0 0 0 0 0 0 0 0 -0 0 0 0 0 0 0 0 0 0 0 0 0 0 0 0 0 0 0 0 0 0
0 0 0 0 0 0 0 0 0 0 0 0 0 0 0 0 0 0 0 0 0 0 0 0 0 0 0 0 0 0 0 0 0 0 0 0 0 0 0 0 0 0 0 0
0 0 0 0 0 0 0 0 0 0 0 0 0 0 0 0 0 0 0 0 0 0 0 0 0 0 0 0 0 0 0 0 0 0 0 0 0 0 0 0 0 0 0 0
0 0 0 0 0 0 0 0 0 0 0 0 0 0 0 0 0 0 0 0 0 0 0 0 0 0 0 0 0 0 0 0 0 0 0 0 0 0 0 0 0 0 0 0
0 0 0 0 0 0 0 0 0 0 0 0 0 0 0 0 0 0 0 0 0 0 0 0 0 0 0 0 0 0 0 0 0 0 0 0 0 0 0 0 0 0 0 0
0 0 0 0 0 0 0 0 0 0 0 0 0 0 0 0 0 0 0 0 0 0 0 0 0 0 0 0 0 0 0 0 0 0 0 0 0 0 0 0 0 0 0 0
0 0 0 0 0 0 0 0 0 0 0 0 0 0 0 0 0 0 0 0 0 0 0 0 0 0 0 0 0 0 0 0 0 0 0 0 0 0 0 0 0 0 0 0
0 0 0 0 0 0 0 0 0 0 0 0 0 0 0 0 0 0 0 0 0 0 0 0 0 0 0 0 0 0 0 0 0 0 0 0 0 0 0 0 0 0 0 0
0 0 0 0 0 0 0 0 0 0 0 0 0 0 0 0 0 0 0 0 0 0 0 0 0 0 0 0 0 0 0 0 0 0 0 0 0 0 0 0 0 0 0 0
0 0 0 0 0 0 0 0 0 0 0 0 0 0 0 0 0 0 0 0 0 0 0 0 0 0 0 0 0 0 0 0 0 0 0 0 0 0 0 0 0 0 0 0
0 0 0 0 0 0 0 0 0 0 0 0 0 0 0 0 0 0 0 0 0 0 0 0 0 0 0 0 0 0 0 0 0 0 0 0 0 0 0 0 0 0 0 0
0 0 0 0 0 0 0 0 0 0 0 0 0 0 0 0 0 0 0 0 0 0 0 0 0 0 0 0 0 0 0 0 0 0 0 0 0 0 0 0 0 0 0 0
0 0 0 0 0 0 0 0 0 0 0 0 0 0 0 0 0 0 0 0 0 0 0 0 0 0 0 0 0 0 0 0 0 0 0 0 0 0 0 0 0 0 0 0
0 0 0 0 0 0 0 0 0 0 0 0 0 0 0 0 0 0 0 0 0 0 0 0 0 0 0 0 0 0 0 0 0 0 0 0 0 0 0 0 0 0 0 0
0 0 0 0 0 0 0 0 0 0 0 0 0 0 0 0 0 0 0 0 0 0 0 0 0 0 0 0 0 0 0 0 0 0 0 0 0 0 0 0 0 0 0 0
0 0 0 0 0 0 0 0 0 0 0 0 0 0 0 0 0 0 0 0 0 0 0 0 0 0 0 0 0 0 0 0 0 0 0 0 0 0 0 0 0 0 0 0
0 0 0 0 0 0 0 0 0 0 0 0 0 0 0 0 0 0 0 0 0 0 0 0 0 0 0 0 0 0 0 0 0 0 0 0 0 0 0 0 0 0 0 0
0 0 0 0 0 0 0 0 0 0 0 0 0 0 0 0 0 0 0 0 0 0 0 0 0 0 0 0 0 0 0 0 0 0 0 0 0 0 0 0 0 0 0 0
0 0 0 0 0 0 0 0 0 0 0 0 0 0 0 0 0 0 0 0 0 0 0 0 0 0 0 0 0 0 0 0 0 0 0 0 0 0 0 0 0 0 0 0
0 0 0 0 0 0 0 0 0 0 0 0 0 0 0 0 0 0 0 0 0 0 0 0 0 0 0 0 0 0 0 0 0 0 0 0 0 0 0 0 0 0 0 0
0 0 0 0 0 0 0 0 0 0 0 0 0 0 0 0 0 0 0 0 0 0 0 0 0 0 0 0 0 0 0 0 0 0 0 0 0 0 0 0 0 0 0 0
0 0 0 0 0 0 0 0 0 0 0 0 0 0 0 0 0 0 0 0 0 0 0 0 0 0 0 0 0 0 0 0 0 0 -0 0 -0 -0 -0 -0 -0 -0 -0 -0
0 0 0 0 0 0 0 0 0 0 0 0 0 0 0 0 0 0 0 0 0 0 0 0 0 0 0 0 0 0 0 0 0 -0 -0 -0 -0 -0 -0 -0 -0 -0 -0 -0
Wind_Speed_500mb
3 8 6 7 6 8 7 2 1 6 7 13 20 20 21 28 35 38 39 40 40 40 37 33 26 14 15 28 33 33 33 33 34 34 31 27 23 21 21 19 19 20 19 19
7 5 8 6 8 8 6 4 7 9 4 7 17 20 20 27 29 34 37 43 44 44 45 43 38 25 5 17 28 30 30 31 33 33 31 27 20 19 16 16 16 19 21 22
4 10 2 6 7 9 4 7 7 2 10 8 18 12 10 16 26 31 37 37 45 48 49 49 46 39 26 7 16 24 26 27 28 29 32 32 28 26 22 18 14 12 15 19
3 3 4 8 6 7 4 3 4 9 9 5 14 3 10 14 20 31 35 40 43 48 50 52 52 49 41 29 15 14 20 23 25 24 24 26 27 23 21 20 20 19 19 19
8 2 3 4 3 4 7 4 3 5 10 7 16 10 16 8 14 20 29 35 39 42 47 53 55 54 49 42 31 20 13 16 21 21 22 22 23 23 24 25 23 22 19 18
3 2 4 4 5 3 16 6 4 4 6 10 9 16 14 8 11 15 21 28 32 37 41 46 48 51 56 55 52 41 28 20 10 5 10 16 20 22 23 24 26 27 27 26
2 4 2 2 5 7 8 8 6 8 9 4 3 11 15 15 15 17 19 23 27 31 37 42 46 49 53 57 55 54 52 50 39 26 14 4 5 11 17 21 26 29 31 32
4 7 4 8 5 5 2 7 8 9 5 6 7 8 11 16 19 20 20 22 25 29 33 38 39 42 47 49 49 48 48 47 44 40 37 31 25 19 13 11 16 22 29 34
7 3 3 8 6 7 7 7 6 6 0 7 9 8 10 18 20 20 19 20 24 25 29 33 35 36 38 42 43 42 41 40 38 35 34 33 31 27 24 21 19 17 17 20
6 7 3 3 3 10 5 5 6 6 7 9 7 8 4 29 25 20 18 17 18 20 25 28 30 33 33 34 34 36 36 35 33 31 30 28 25 24 22 21 21 20 19 19
8 4 6 4 10 10 1 3 1 5 6 8 10 6 10 26 26 24 20 15 14 17 21 24 26 28 30 31 33 33 33 32 31 30 27 24 23 22 21 20 20 20 21 21
9 6 7 4 7 3 3 5 5 8 3 1 6 2 5 6 23 23 20 14 13 14 16 20 23 25 28 30 31 33 32 31 31 30 29 28 25 24 23 23 24 23 22 22
9 3 6 7 7 5 6 7 6 3 3 17 13 3 5 17 21 20 19 13 10 12 15 17 20 24 27 29 31 32 33 34 32 31 29 29 30 29 29 29 28 27 26 25
3 5 11 10 8 7 5 4 8 8 9 17 16 9 11 17 19 21 15 9 8 11 15 18 21 24 27 29 32 34 36 39 40 38 34 31 32 32 33 32 32 32 31 30
4 5 6 11 10 9 13 17 15 15 19 15 14 12 5 14 16 17 13 8 9 14 18 21 24 28 31 34 36 38 41 44 44 41 37 36 38 38 37 36 36 35 34 33
7 2 4 6 3 8 16 14 15 12 11 19 15 14 4 10 13 14 7 6 9 11 15 21 24 30 35 42 48 46 46 47 44 41 40 43 45 44 43 43 41 40 39 38
4 2 2 5 8 14 16 6 6 5 2 5 8 9 8 9 8 6 12 4 6 9 16 22 28 35 40 44 47 47 48 47 43 40 40 43 45 46 48 47 44 45 44 41
1 2 3 6 10 8 11 5 4 10 8 6 9 11 9 3 3 4 3 7 7 13 20 26 34 39 42 43 45 49 46 44 43 41 41 42 45 45 46 46 45 43 40 40
4 3 3 6 7 8 12 11 8 9 8 7 3 7 11 11 17 18 10 10 8 17 25 32 37 43 43 41 44 45 42 40 38 39 41 43 42 43 42 43 40 38 38 37
7 1 7 4 7 7 10 9 2 6 14 10 4 13 18 18 17 18 13 11 15 29 36 41 42 38 35 37 36 38 36 35 36 40 44 43 40 38 37 36 36 35 32 31
5 6 13 12 9 8 11 7 11 11 5 12 23 23 31 32 35 14 14 17 28 33 35 38 36 31 27 27 32 30 31 32 37 37 36 33 31 32 29 30 27 27 27 25
6 5 8 6 9 12 15 6 10 20 39 30 28 38 42 37 27 19 23 26 31 34 34 32 28 27 22 24 24 26 28 33 35 32 30 28 27 26 23 21 21 20 21 23
8 11 4 9 3 9 15 26 29 21 34 38 39 27 22 21 18 15 18 25 29 31 28 24 23 19 17 22 22 24 27 29 29 27 26 26 23 22 23 20 22 22 25 27
10 10 9 7 15 33 27 37 24 14 20 25 23 22 18 19 20 25 26 26 27 25 21 19 17 14 18 21 21 22 26 24 22 23 23 22 22 25 24 22 25 26 30 30
14 7 11 19 35 32 35 16 11 25 23 26 27 25 24 26 25 30 29 26 23 20 19 20 18 17 18 22 19 23 24 22 18 20 19 20 20 21 20 21 24 24 25 27
17 13 10 12 16 22 35 29 27 34 34 34 31 28 35 32 30 29 26 24 22 19 20 21 21 22 18 22 19 23 21 17 15 15 17 18 17 18 20 17 15 24 25 24
Wind_Direction_500mb
23 225 140 88 65 76 105 107 321 88 82 80 92 80 48 35 38 34 29 26 22 19 11 12 2 333 232 214 214 216 216 215 217 218 221 228 235 240 246 250 252 253 256 260
208 144 110 99 148 157 173 199 150 121 92 153 133 94 71 50 46 37 30 28 24 21 21 21 23 26 30 201 208 211 216 219 223 224 226 229 234 239 245 252 255 257 258 259
324 91 111 239 178 199 204 255 181 153 127 109 157 135 116 68 57 48 42 36 32 28 24 24 27 34 43 85 195 204 213 215 223 228 233 239 243 252 256 257 261 273 274 266
86 102 182 167 198 236 228 165 160 156 214 242 215 144 155 97 65 46 39 36 35 32 33 33 33 37 45 57 92 165 193 205 212 221 232 244 250 253 260 263 273 277 279 284
91 140 168 216 36 220 74 156 168 211 239 248 189 250 117 196 77 52 42 38 37 38 39 39 41 43 47 61 73 89 131 173 191 199 211 226 239 252 256 266 267 268 272 276
52 317 293 34 79 36 138 145 122 151 210 234 144 232 149 155 111 88 63 51 46 42 43 46 47 49 52 59 65 74 84 96 110 163 213 228 234 239 246 252 258 262 258 258
68 80 68 341 195 132 204 225 219 207 200 18 134 210 60 119 106 102 87 64 55 53 49 47 46 48 53 57 60 63 70 74 75 75 72 58 282 271 271 270 270 268 268 265
308 175 353 2 355 344 265 296 300 290 273 96 139 217 122 126 120 113 99 84 70 60 53 50 49 51 55 58 59 60 62 64 63 64 62 60 58 49 27 345 309 291 283 277
332 144 13 33 339 318 127 239 6 298 335 259 122 122 147 158 146 138 114 91 72 63 55 50 48 49 49 54 56 58 58 57 56 55 54 51 48 44 36 25 11 358 334 313
40 279 62 20 257 69 322 78 241 196 272 261 175 218 120 181 171 153 137 100 80 66 55 50 48 44 44 45 47 49 49 48 48 47 43 38 35 33 27 21 17 9 357 343
341 273 117 228 23 11 321 210 351 300 293 290 293 126 352 178 174 167 144 114 83 58 50 46 45 43 41 39 38 38 36 34 33 31 28 22 19 15 11 6 3 357 351 346
18 316 278 359 353 337 331 39 355 275 182 283 311 290 78 198 169 161 144 119 82 56 46 42 37 36 31 29 28 25 22 19 18 14 9 6 360 357 356 355 352 348 343 339
359 199 272 184 165 159 65 53 58 26 281 257 276 69 101 140 155 158 151 126 80 56 45 36 31 26 22 17 14 11 7 5 1 359 358 353 351 347 345 343 340 337 335 333
229 278 278 299 21 343 268 312 328 299 266 289 261 303 172 172 166 160 149 118 78 52 39 29 23 16 10 5 360 354 350 347 343 341 340 339 338 337 335 332 328 325 325 325
38 264 303 293 299 290 276 286 285 266 279 266 341 328 177 174 164 149 128 91 53 33 21 14 6 359 354 350 346 341 337 335 334 334 332 325 322 319 316 314 314 314 314 315
356 172 331 279 349 303 280 278 269 260 263 265 280 261 120 153 150 159 132 63 29 16 6 355 352 348 345 340 335 332 330 329 330 326 324 320 319 319 316 313 311 307 304 305
359 290 240 235 316 303 247 212 185 121 72 290 277 63 156 138 172 221 233 312 344 349 345 342 337 334 333 332 331 328 327 327 326 324 320 318 316 314 314 314 312 309 310 307
153 216 274 305 301 239 85 102 115 110 74 69 105 104 94 128 296 273 173 278 301 327 330 327 324 324 326 325 324 323 324 324 324 323 320 319 317 317 315 313 313 313 312 311
197 244 229 279 262 320 177 176 192 217 139 74 15 302 293 290 292 255 231 249 300 323 320 322 319 319 320 322 321 322 323 324 325 324 321 319 318 317 318 317 319 316 316 316
162 16 275 212 265 272 101 138 213 193 233 142 4 310 287 276 267 282 186 261 302 310 311 312 313 317 317 319 321 325 327 329 326 323 322 321 320 320 318 317 314 319 319 318
190 216 239 245 261 269 122 72 140 235 79 284 303 297 290 274 263 279 273 289 303 307 311 313 315 319 323 325 329 332 332 330 329 327 327 328 329 328 325 328 329 329 330 332
237 236 218 210 236 250 165 158 226 327 303 294 277 298 289 275 255 248 266 285 301 311 314 315 317 318 322 331 337 336 334 332 333 339 337 340 342 342 339 345 349 354 355 358
248 229 294 238 334 150 191 286 291 293 287 291 289 282 275 268 247 250 282 301 305 307 308 310 317 321 327 328 332 335 334 337 345 348 350 354 1 5 10 14 17 22 23 23
226 221 245 275 239 264 282 284 282 288 285 294 286 279 273 262 264 282 293 296 300 302 302 308 317 311 319 324 330 332 337 341 346 345 1 6 8 21 29 31 34 35 34 31
282 178 243 256 272 279 268 274 267 301 285 296 285 270 283 278 272 282 289 292 293 293 298 303 305 300 307 317 318 328 330 341 344 344 358 6 5 20 25 31 32 36 31 35
205 227 223 263 280 280 280 289 285 292 285 285 276 260 282 275 280 287 288 288 286 284 288 295 299 300 297 308 309 320 324 344 349 346 353 358 11 18 22 28 33 12 29 36
Wind_Speed_850mb
3 8 6 7 6 8 7 2 1 6 7 13 20 20 21 28 35 38 39 40 40 40 37 33 26 14 15 28 33 33 33 33 34 34 31 27 23 21 21 19 19 20 19 19
7 5 8 6 8 8 6 4 7 9 4 7 17 20 20 27 29 34 37 43 44 44 45 43 38 25 5 17 28 30 30 31 33 33 31 27 20 19 16 16 16 19 21 22
4 10 2 6 7 9 4 7 7 2 10 8 18 12 10 16 26 31 37 37 45 48 49 49 46 39 26 7 16 24 26 27 28 29 32 32 28 26 22 18 14 12 15 19
3 3 4 8 6 7 4 3 4 9 9 5 14 3 10 14 20 31 35 40 43 48 50 52 52 49 41 29 15 14 20 23 25 24 24 26 27 23 21 20 20 19 19 19
8 2 3 4 3 4 7 4 3 5 10 7 16 10 16 8 14 20 29 35 39 42 47 53 55 54 49 42 31 20 13 16 21 21 22 22 23 23 24 25 23 22 19 18
3 2 4 4 5 3 16 6 4 4 6 10 9 16 14 8 11 15 21 28 32 37 41 46 48 51 56 55 52 41 28 20 10 5 10 16 20 22 23 24 26 27 27 26
2 4 2 2 5 7 8 8 6 8 9 4 3 11 15 15 15 17 19 23 27 31 37 42 46 49 53 57 55 54 52 50 39 26 14 4 5 11 17 21 26 29 31 32
4 7 4 8 5 5 2 7 8 9 5 6 7 8 11 16 19 20 20 22 25 29 33 38 39 42 47 49 49 48 48 47 44 40 37 31 25 19 13 11 16 22 29 34
7 3 3 8 6 7 7 7 6 6 0 7 9 8 10 18 20 20 19 20 24 25 29 33 35 36 38 42 43 42 41 40 38 35 34 33 31 27 24 21 19 17 17 20
6 7 3 3 3 10 5 5 6 6 7 9 7 8 4 29 25 20 18 17 18 20 25 28 30 33 33 34 34 36 36 35 33 31 30 28 25 24 22 21 21 20 19 19
8 4 6 4 10 10 1 3 1 5 6 8 10 6 10 26 26 24 20 15 14 17 21 24 26 28 30 31 33 33 33 32 31 30 27 24 23 22 21 20 20 20 21 21
9 6 7 4 7 3 3 5 5 8 3 1 6 2 5 6 23 23 20 14 13 14 16 20 23 25 28 30 31 33 32 31 31 30 29 28 25 24 23 23 24 23 22 22
9 3 6 7 7 5 6 7 6 3 3 17 13 3 5 17 21 20 19 13 10 12 15 17 20 24 27 29 31 32 33 34 32 31 29 29 30 29 29 29 28 27 26 25
3 5 11 10 8 7 5 4 8 8 9 17 16 9 11 17 19 21 15 9 8 11 15 18 21 24 27 29 32 34 36 39 40 38 34 31 32 32 33 32 32 32 31 30
4 5 6 11 10 9 13 17 15 15 19 15 14 12 5 14 16 17 13 8 9 14 18 21 24 28 31 34 36 38 41 44 44 41 37 36 38 38 37 36 36 35 34 33
7 2 4 6 3 8 16 14 15 12 11 19 15 14 4 10 13 14 7 6 9 11 15 21 24 30 35 42 48 46 46 47 44 41 40 43 45 44 43 43 41 40 39 38
4 2 2 5 8 14 16 6 6 5 2 5 8 9 8 9 8 6 12 4 6 9 16 22 28 35 40 44 47 47 48 47 43 40 40 43 45 46 48 47 44 45 44 41
1 2 3 6 10 8 11 5 4 10 8 6 9 11 9 3 3 4 3 7 7 13 20 26 34 39 42 43 45 49 46 44 43 41 41 42 45 45 46 46 45 43 40 40
4 3 3 6 7 8 12 11 8 9 8 7 3 7 11 11 17 18 10 10 8 17 25 32 37 43 43 41 44 45 42 40 38 39 41 43 42 43 42 43 40 38 38 37
7 1 7 4 7 7 10 9 2 6 14 10 4 13 18 18 17 18 13 11 15 29 36 41 42 38 35 37 36 38 36 35 36 40 44 43 40 38 37 36 36 35 32 31
5 6 13 12 9 8 11 7 11 11 5 12 23 23 31 32 35 14 14 17 28 33 35 38 36 31 27 27 32 30 31 32 37 37 36 33 31 32 29 30 27 27 27 25
6 5 8 6 9 12 15 6 10 20 39 30 28 38 42 37 27 19 23 26 31 34 34 32 28 27 22 24 24 26 28 33 35 32 30 28 27 26 23 21 21 20 21 23
8 11 4 9 3 9 15 26 29 21 34 38 39 27 22 21 18 15 18 25 29 31 28 24 23 19 17 22 22 24 27 29 29 27 26 26 23 22 23 20 22 22 25 27
10 10 9 7 15 33 27 37 24 14 20 25 23 22 18 19 20 25 26 26 27 25 21 19 17 14 18 21 21 22 26 24 22 23 23 22 22 25 24 22 25 26 30 30
14 7 11 19 35 32 35 16 11 25 23 26 27 25 24 26 25 30 29 26 23 20 19 20 18 17 18 22 19 23 24 22 18 20 19 20 20 21 20 21 24 24 25 27
17 13 10 12 16 22 35 29 27 34 34 34 31 28 35 32 30 29 26 24 22 19 20 21 21 22 18 22 19 23 21 17 15 15 17 18 17 18 20 17 15 24 25 24
Wind_Direction_850mb
23 225 140 88 65 76 105 107 321 88 82 80 92 80 48 35 38 34 29 26 22 19 11 12 2 333 232 214 214 216 216 215 217 218 221 228 235 240 246 250 252 253 256 260
208 144 110 99 148 157 173 199 150 121 92 153 133 94 71 50 46 37 30 28 24 21 21 21 23 26 30 201 208 211 216 219 223 224 226 229 234 239 245 252 255 257 258 259
324 91 111 239 178 199 204 255 181 153 127 109 157 135 116 68 57 48 42 36 32 28 24 24 27 34 43 85 195 204 213 215 223 228 233 239 243 252 256 257 261 273 274 266
86 102 182 167 198 236 228 165 160 156 214 242 215 144 155 97 65 46 39 36 35 32 33 33 33 37 45 57 92 165 193 205 212 221 232 244 250 253 260 263 273 277 279 284
91 140 168 216 36 220 74 156 168 211 239 248 189 250 117 196 77 52 42 38 37 38 39 39 41 43 47 61 73 89 131 173 191 199 211 226 239 252 256 266 267 268 272 276
52 317 293 34 79 36 138 145 122 151 210 234 144 232 149 155 111 88 63 51 46 42 43 46 47 49 52 59 65 74 84 96 110 163 213 228 234 239 246 252 258 262 258 258
68 80 68 341 195 132 204 225 219 207 200 18 134 210 60 119 106 102 87 64 55 53 49 47 46 48 53 57 60 63 70 74 75 75 72 58 282 271 271 270 270 268 268 265
308 175 353 2 355 344 265 296 300 290 273 96 139 217 122 126 120 113 99 84 70 60 53 50 49 51 55 58 59 60 62 64 63 64 62 60 58 49 27 345 309 291 283 277
332 144 13 33 339 318 127 239 6 298 335 259 122 122 147 158 146 138 114 91 72 63 55 50 48 49 49 54 56 58 58 57 56 55 54 51 48 44 36 25 11 358 334 313
40 279 62 20 257 69 322 78 241 196 272 261 175 218 120 181 171 153 137 100 80 66 55 50 48 44 44 45 47 49 49 48 48 47 43 38 35 33 27 21 17 9 357 343
341 273 117 228 23 11 321 210 351 300 293 290 293 126 352 178 174 167 144 114 83 58 50 46 45 43 41 39 38 38 36 34 33 31 28 22 19 15 11 6 3 357 351 346
18 316 278 359 353 337 331 39 355 275 182 283 311 290 78 198 169 161 144 119 82 56 46 42 37 36 31 29 28 25 22 19 18 14 9 6 360 357 356 355 352 348 343 339
359 199 272 184 165 159 65 53 58 26 281 257 276 69 101 140 155 158 151 126 80 56 45 36 31 26 22 17 14 11 7 5 1 359 358 353 351 347 345 343 340 337 335 333
229 278 278 299 21 343 268 312 328 299 266 289 261 303 172 172 166 160 149 118 78 52 39 29 23 16 10 5 360 354 350 347 343 341 340 339 338 337 335 332 328 325 325 325
38 264 303 293 299 290 276 286 285 266 279 266 341 328 177 174 164 149 128 91 53 33 21 14 6 359 354 350 346 341 337 335 334 334 332 325 322 319 316 314 314 314 314 315
356 172 331 279 349 303 280 278 269 260 263 265 280 261 120 153 150 159 132 63 29 16 6 355 352 348 345 340 335 332 330 329 330 326 324 320 319 319 316 313 311 307 304 305
359 290 240 235 316 303 247 212 185 121 72 290 277 63 156 138 172 221 233 312 344 349 345 342 337 334 333 332 331 328 327 327 326 324 320 318 316 314 314 314 312 309 310 307
153 216 274 305 301 239 85 102 115 110 74 69 105 104 94 128 296 273 173 278 301 327 330 327 324 324 326 325 324 323 324 324 324 323 320 319 317 317 315 313 313 313 312 311
197 244 229 279 262 320 177 176 192 217 139 74 15 302 293 290 292 255 231 249 300 323 320 322 319 319 320 322 321 322 323 324 325 324 321 319 318 317 318 317 319 316 316 316
162 16 275 212 265 272 101 138 213 193 233 142 4 310 287 276 267 282 186 261 302 310 311 312 313 317 317 319 321 325 327 329 326 323 322 321 320 320 318 317 314 319 319 318
190 216 239 245 261 269 122 72 140 235 79 284 303 297 290 274 263 279 273 289 303 307 311 313 315 319 323 325 329 332 332 330 329 327 327 328 329 328 325 328 329 329 330 332
237 236 218 210 236 250 165 158 226 327 303 294 277 298 289 275 255 248 266 285 301 311 314 315 317 318 322 331 337 336 334 332 333 339 337 340 342 342 339 345 349 354 355 358
248 229 294 238 334 150 191 286 291 293 287 291 289 282 275 268 247 250 282 301 305 307 308 310 317 321 327 328 332 335 334 337 345 348 350 354 1 5 10 14 17 22 23 23
226 221 245 275 239 264 282 284 282 288 285 294 286 279 273 262 264 282 293 296 300 302 302 308 317 311 319 324 330 332 337 341 346 345 1 6 8 21 29 31 34 35 34 31
282 178 243 256 272 279 268 274 267 301 285 296 285 270 283 278 272 282 289 292 293 293 298 303 305 300 307 317 318 328 330 341 344 344 358 6 5 20 25 31 32 36 31 35
205 227 223 263 280 280 280 289 285 292 285 285 276 260 282 275 280 287 288 288 286 284 288 295 299 300 297 308 309 320 324 344 349 346 353 358 11 18 22 28 33 12 29 36